Simultaneous Nadir Overpasses (SNOs) Predictions

Prediction of SNOs between FY3D and AQUA Satellite Orbit:

Table of predicted SNOs for the next 14.0 days since TLE Epoch: 11/7/2020
Index Date (FY3D) Time (FY3D) Lat,Lon (FY3D) SZA (FY3D ) Date (AQUA) Time (AQUA) Lat,Lon (AQUA) SZA (AQUA ) Distance(km) Time Diff (sec)
1 11/07/2020 12:39:17 49.32,-156.43 135.45 11/07/2020 12:40:14 49.34,-156.58 135.40 11.64 57
2 11/07/2020 13:28:36 -54.40, 13.34 48.50 11/07/2020 13:28:17 -54.40, 13.35 48.47 0.95 19
3 11/07/2020 14:04:09 69.25, -31.79 85.69 11/07/2020 14:02:57 69.64, -29.60 86.13 95.66 72
4 11/10/2020 04:55:31 49.72, -40.33 135.80 11/10/2020 04:56:35 49.73, -40.54 135.77 15.28 64
5 11/10/2020 05:45:20 -53.09, 128.57 46.78 11/10/2020 05:45:07 -53.09, 128.59 46.76 1.10 13
6 11/10/2020 06:25:19 81.09, 28.94 101.50 11/10/2020 06:24:06 81.66, 29.71 101.82 65.38 73
7 11/12/2020 21:11:47 50.06, 75.74 136.19 11/12/2020 21:12:57 50.12, 75.50 136.13 18.42 70
8 11/12/2020 22:02:02 -51.94,-116.07 45.24 11/12/2020 22:01:55 -51.95,-116.07 45.23 0.69 7
9 11/12/2020 22:46:12 73.47, 72.69 116.09 11/12/2020 22:44:59 73.60, 71.77 116.35 32.47 73
10 11/15/2020 14:18:41 -50.97, -0.62 43.87 11/15/2020 14:18:40 -50.96, -0.62 43.86 0.25 1
11 11/15/2020 15:06:37 60.36, 172.13 128.66 11/15/2020 15:05:24 60.35, 172.10 128.80 1.58 73
12 11/18/2020 06:35:16 -50.21, 114.96 42.70 11/18/2020 06:35:21 -50.21, 114.93 42.70 1.68 5
13 11/18/2020 07:23:34 58.32, -73.35 130.98 11/18/2020 07:22:26 58.33, -73.32 131.08 1.89 68
14 11/20/2020 22:52:16 -47.96,-130.11 40.50 11/20/2020 22:52:26 -47.96,-130.11 40.52 0.03 10
